Time,TemperatureF,DewpointF,PressureIn,WindDirection,WindDirectionDegrees,WindSpeedMPH,WindSpeedGustMPH,Humidity,HourlyPrecipIn,Conditions,Clouds,dailyrainin,SoftwareType,DateUTC
2013-12-31 00:08:00,27.5,14.7,30.16,South,180,0.0,-999.0,58,-99.99,,,0.00,Acu-Link.com,2013-12-31 07:08:00,
2013-12-31 00:23:00,26.4,14.4,30.16,SSW,202,0.0,-999.0,60,-99.99,,,0.00,Acu-Link.com,2013-12-31 07:23:00,
2013-12-31 00:38:00,26.4,14.8,30.17,West,270,0.0,-999.0,61,-99.99,,,0.00,Acu-Link.com,2013-12-31 07:38:00,
2013-12-31 00:54:00,26.6,14.6,30.17,NW,315,1.6,-999.0,60,-99.99,,,0.00,Acu-Link.com,2013-12-31 07:54:00,
2013-12-31 01:09:00,27.3,14.9,30.16,WNW,292,3.8,-999.0,59,-99.99,,,0.00,Acu-Link.com,2013-12-31 08:09:00,
2013-12-31 01:24:00,27.3,14.5,30.16,ESE,112,0.0,-999.0,58,-99.99,,,0.00,Acu-Link.com,2013-12-31 08:24:00,
2013-12-31 01:39:00,26.4,14.1,30.16,NE,45,0.0,-999.0,59,-99.99,,,0.00,Acu-Link.com,2013-12-31 08:39:00,
2013-12-31 01:55:00,25.7,14.5,30.16,SSE,157,0.0,-999.0,62,-99.99,,,0.00,Acu-Link.com,2013-12-31 08:55:00,
2013-12-31 02:10:00,24.6,14.2,30.16,SSE,157,0.0,-999.0,64,-99.99,,,0.00,Acu-Link.com,2013-12-31 09:10:00,
2013-12-31 02:25:00,24.8,14.7,30.16,SSE,157,0.0,-999.0,65,-99.99,,,0.00,Acu-Link.com,2013-12-31 09:25:00,
2013-12-31 02:40:00,23.9,13.9,30.16,SSE,157,0.0,-999.0,65,-99.99,,,0.00,Acu-Link.com,2013-12-31 09:40:00,
2013-12-31 02:55:00,23.7,14.4,30.15,SSE,157,0.0,-999.0,67,-99.99,,,0.00,Acu-Link.com,2013-12-31 09:55:00,
2013-12-31 03:11:00,22.6,14.4,30.15,SSE,157,0.0,-999.0,70,-99.99,,,0.00,Acu-Link.com,2013-12-31 10:11:00,
2013-12-31 03:26:00,23.9,14.6,30.15,SSE,157,2.7,-999.0,67,-99.99,,,0.00,Acu-Link.com,2013-12-31 10:26:00,
2013-12-31 03:41:00,24.4,15.1,30.16,South,180,2.7,-999.0,67,-99.99,,,0.00,Acu-Link.com,2013-12-31 10:41:00,
2013-12-31 03:56:00,23.2,14.2,30.15,SW,225,0.0,-999.0,68,-99.99,,,0.00,Acu-Link.com,2013-12-31 10:56:00,
2013-12-31 04:11:00,22.3,14.3,30.13,SW,225,0.0,-999.0,71,-99.99,,,0.00,Acu-Link.com,2013-12-31 11:11:00,
2013-12-31 04:27:00,22.1,14.2,30.13,SW,225,0.0,-999.0,71,-99.99,,,0.00,Acu-Link.com,2013-12-31 11:27:00,
2013-12-31 04:42:00,22.1,14.5,30.13,SW,225,0.0,-999.0,72,-99.99,,,0.00,Acu-Link.com,2013-12-31 11:42:00,
2013-12-31 04:57:00,22.3,14.3,30.14,NNW,337,0.0,-999.0,71,-99.99,,,0.00,Acu-Link.com,2013-12-31 11:57:00,
2013-12-31 05:12:00,21.6,14.0,30.13,NNW,337,1.6,-999.0,72,-99.99,,,0.00,Acu-Link.com,2013-12-31 12:12:00,
2013-12-31 05:27:00,23.0,15.3,30.13,NNW,337,2.2,-999.0,72,-99.99,,,0.00,Acu-Link.com,2013-12-31 12:27:00,
2013-12-31 05:43:00,23.2,14.5,30.13,NNW,337,2.7,-999.0,69,-99.99,,,0.00,Acu-Link.com,2013-12-31 12:43:00,
2013-12-31 05:58:00,23.0,14.4,30.13,NNW,337,1.6,-999.0,69,-99.99,,,0.00,Acu-Link.com,2013-12-31 12:58:00,
2013-12-31 06:13:00,22.6,14.4,30.13,NNW,337,0.0,-999.0,70,-99.99,,,0.00,Acu-Link.com,2013-12-31 13:13:00,
2013-12-31 06:28:00,22.1,14.2,30.13,East,90,0.0,-999.0,71,-99.99,,,0.00,Acu-Link.com,2013-12-31 13:28:00,
2013-12-31 06:43:00,22.1,14.8,30.14,NNW,337,1.6,-999.0,73,-99.99,,,0.00,Acu-Link.com,2013-12-31 13:43:00,
2013-12-31 06:59:00,21.2,13.6,30.14,NNE,22,0.0,-999.0,72,-99.99,,,0.00,Acu-Link.com,2013-12-31 13:59:00,
2013-12-31 07:14:00,20.8,13.9,30.14,NNE,22,0.0,-999.0,74,-99.99,,,0.00,Acu-Link.com,2013-12-31 14:14:00,
2013-12-31 07:29:00,21.0,15.5,30.14,NNE,22,0.0,-999.0,79,-99.99,,,0.00,Acu-Link.com,2013-12-31 14:29:00,
2013-12-31 07:44:00,21.2,15.1,30.15,NE,45,2.2,-999.0,77,-99.99,,,0.00,Acu-Link.com,2013-12-31 14:44:00,
2013-12-31 07:59:00,22.3,15.9,30.16,NNE,22,2.7,-999.0,76,-99.99,,,0.00,Acu-Link.com,2013-12-31 14:59:00,
2013-12-31 08:15:00,23.2,16.1,30.16,NE,45,3.1,-999.0,74,-99.99,,,0.00,Acu-Link.com,2013-12-31 15:15:00,
2013-12-31 08:30:00,24.1,16.4,30.16,NE,45,2.7,-999.0,72,-99.99,,,0.00,Acu-Link.com,2013-12-31 15:30:00,
2013-12-31 08:45:00,26.8,17.3,30.17,ENE,67,3.8,-999.0,67,-99.99,,,0.00,Acu-Link.com,2013-12-31 15:45:00,
2013-12-31 09:00:00,28.4,17.1,30.17,NE,45,2.7,-999.0,62,-99.99,,,0.00,Acu-Link.com,2013-12-31 16:00:00,
2013-12-31 09:15:00,30.6,17.2,30.17,SE,135,1.6,-999.0,57,-99.99,,,0.00,Acu-Link.com,2013-12-31 16:15:00,
2013-12-31 09:31:00,33.1,17.4,30.17,South,180,3.1,-999.0,52,-99.99,,,0.00,Acu-Link.com,2013-12-31 16:31:00,
2013-12-31 09:46:00,34.2,17.5,30.16,SSE,157,2.7,-999.0,50,-99.99,,,0.00,Acu-Link.com,2013-12-31 16:46:00,
2013-12-31 10:01:00,36.0,17.7,30.16,SSE,157,5.1,-999.0,47,-99.99,,,0.00,Acu-Link.com,2013-12-31 17:01:00,
2013-12-31 10:16:00,36.7,18.4,30.15,SSE,157,4.3,-999.0,47,-99.99,,,0.00,Acu-Link.com,2013-12-31 17:16:00,
2013-12-31 10:32:00,38.3,18.8,30.14,SW,225,3.1,-999.0,45,-99.99,,,0.00,Acu-Link.com,2013-12-31 17:32:00,
2013-12-31 10:47:00,39.6,18.9,30.14,SE,135,5.8,-999.0,43,-99.99,,,0.00,Acu-Link.com,2013-12-31 17:47:00,
2013-12-31 11:02:00,40.5,18.6,30.13,SSW,202,2.7,-999.0,41,-99.99,,,0.00,Acu-Link.com,2013-12-31 18:02:00,
2013-12-31 11:17:00,42.1,18.9,30.12,South,180,3.8,-999.0,39,-99.99,,,0.00,Acu-Link.com,2013-12-31 18:17:00,
2013-12-31 11:32:00,43.5,19.0,30.11,SW,225,1.6,-999.0,37,-99.99,,,0.00,Acu-Link.com,2013-12-31 18:32:00,
2013-12-31 11:47:00,44.6,18.7,30.10,South,180,3.1,-999.0,35,-99.99,,,0.00,Acu-Link.com,2013-12-31 18:47:00,
2013-12-31 12:03:00,46.2,18.7,30.09,SSE,157,1.6,-999.0,33,-99.99,,,0.00,Acu-Link.com,2013-12-31 19:03:00,
2013-12-31 12:18:00,48.4,19.9,30.08,ESE,112,2.7,-999.0,32,-99.99,,,0.00,Acu-Link.com,2013-12-31 19:18:00,
2013-12-31 12:33:00,48.2,16.6,30.06,SE,135,2.7,-999.0,28,-99.99,,,0.00,Acu-Link.com,2013-12-31 19:33:00,
2013-12-31 12:48:00,48.6,17.0,30.05,SSW,202,4.3,-999.0,28,-99.99,,,0.00,Acu-Link.com,2013-12-31 19:48:00,
2013-12-31 13:03:00,48.7,17.9,30.04,SSE,157,3.1,-999.0,29,-99.99,,,0.00,Acu-Link.com,2013-12-31 20:03:00,
2013-12-31 13:19:00,50.2,18.4,30.02,SSE,157,4.7,-999.0,28,-99.99,,,0.00,Acu-Link.com,2013-12-31 20:19:00,
2013-12-31 13:34:00,50.2,18.4,30.02,South,180,4.3,-999.0,28,-99.99,,,0.00,Acu-Link.com,2013-12-31 20:34:00,
2013-12-31 13:49:00,50.4,17.7,30.01,SSW,202,3.1,-999.0,27,-99.99,,,0.00,Acu-Link.com,2013-12-31 20:49:00,
2013-12-31 14:04:00,50.5,17.8,30.01,SE,135,3.8,-999.0,27,-99.99,,,0.00,Acu-Link.com,2013-12-31 21:04:00,
2013-12-31 14:19:00,50.7,18.0,30.00,East,90,1.6,-999.0,27,-99.99,,,0.00,Acu-Link.com,2013-12-31 21:19:00,
2013-12-31 14:35:00,50.4,17.7,30.00,South,180,2.2,-999.0,27,-99.99,,,0.00,Acu-Link.com,2013-12-31 21:35:00,
2013-12-31 14:50:00,51.1,18.3,30.01,SSW,202,3.8,-999.0,27,-99.99,,,0.00,Acu-Link.com,2013-12-31 21:50:00,
2013-12-31 15:05:00,50.4,18.5,30.00,SSE,157,4.3,-999.0,28,-99.99,,,0.00,Acu-Link.com,2013-12-31 22:05:00,
2013-12-31 15:20:00,49.6,17.9,30.00,South,180,3.8,-999.0,28,-99.99,,,0.00,Acu-Link.com,2013-12-31 22:20:00,
2013-12-31 15:36:00,51.1,19.1,29.99,South,180,3.8,-999.0,28,-99.99,,,0.00,Acu-Link.com,2013-12-31 22:36:00,
2013-12-31 15:51:00,49.8,18.0,29.99,South,180,4.3,-999.0,28,-99.99,,,0.00,Acu-Link.com,2013-12-31 22:51:00,
2013-12-31 16:06:00,49.8,18.9,29.98,SSW,202,3.8,-999.0,29,-99.99,,,0.00,Acu-Link.com,2013-12-31 23:06:00,
2013-12-31 16:21:00,49.6,18.7,29.99,SW,225,2.2,-999.0,29,-99.99,,,0.00,Acu-Link.com,2013-12-31 23:21:00,
2013-12-31 16:36:00,48.6,17.8,29.98,SSE,157,4.3,-999.0,29,-99.99,,,0.00,Acu-Link.com,2013-12-31 23:36:00,
2013-12-31 16:52:00,47.7,18.5,29.98,South,180,2.2,-999.0,31,-99.99,,,0.00,Acu-Link.com,2013-12-31 23:52:00,
2013-12-31 17:07:00,46.4,18.2,29.98,SSW,202,3.1,-999.0,32,-99.99,,,0.00,Acu-Link.com,2014-01-01 00:07:00,
2013-12-31 17:22:00,45.3,18.6,29.98,SW,225,2.2,-999.0,34,-99.99,,,0.00,Acu-Link.com,2014-01-01 00:22:00,
2013-12-31 17:37:00,44.4,17.8,29.98,SW,225,2.2,-999.0,34,-99.99,,,0.00,Acu-Link.com,2014-01-01 00:37:00,
2013-12-31 17:52:00,43.0,17.9,29.98,WNW,292,2.2,-999.0,36,-99.99,,,0.00,Acu-Link.com,2014-01-01 00:52:00,
2013-12-31 18:08:00,41.4,17.7,29.98,West,270,0.0,-999.0,38,-99.99,,,0.00,Acu-Link.com,2014-01-01 01:08:00,
2013-12-31 18:23:00,40.5,17.5,29.98,SW,225,0.0,-999.0,39,-99.99,,,0.00,Acu-Link.com,2014-01-01 01:23:00,
2013-12-31 18:38:00,39.9,17.0,29.99,WSW,247,2.7,-999.0,39,-99.99,,,0.00,Acu-Link.com,2014-01-01 01:38:00,
2013-12-31 18:53:00,39.6,17.3,29.99,West,270,2.2,-999.0,40,-99.99,,,0.00,Acu-Link.com,2014-01-01 01:53:00,
2013-12-31 19:08:00,38.1,16.5,29.99,ESE,112,0.0,-999.0,41,-99.99,,,0.00,Acu-Link.com,2014-01-01 02:08:00,
2013-12-31 19:24:00,36.9,17.5,29.99,East,90,0.0,-999.0,45,-99.99,,,0.00,Acu-Link.com,2014-01-01 02:24:00,
2013-12-31 19:39:00,36.5,17.7,29.99,NE,45,0.0,-999.0,46,-99.99,,,0.00,Acu-Link.com,2014-01-01 02:39:00,
2013-12-31 19:54:00,36.1,17.4,29.99,NNW,337,0.0,-999.0,46,-99.99,,,0.00,Acu-Link.com,2014-01-01 02:54:00,
2013-12-31 20:09:00,34.9,17.7,29.99,WNW,292,0.0,-999.0,49,-99.99,,,0.00,Acu-Link.com,2014-01-01 03:09:00,
2013-12-31 20:25:00,35.2,17.5,29.99,WNW,292,2.7,-999.0,48,-99.99,,,0.00,Acu-Link.com,2014-01-01 03:25:00,
2013-12-31 20:40:00,35.2,17.1,29.99,WNW,292,2.7,-999.0,47,-99.99,,,0.00,Acu-Link.com,2014-01-01 03:40:00,
2013-12-31 20:55:00,34.3,16.7,29.98,West,270,2.7,-999.0,48,-99.99,,,0.00,Acu-Link.com,2014-01-01 03:55:00,
2013-12-31 21:10:00,34.7,17.0,29.99,West,270,2.7,-999.0,48,-99.99,,,0.00,Acu-Link.com,2014-01-01 04:10:00,
2013-12-31 21:25:00,34.2,16.5,29.99,West,270,1.6,-999.0,48,-99.99,,,0.00,Acu-Link.com,2014-01-01 04:25:00,
2013-12-31 21:41:00,33.4,16.4,29.99,West,270,0.0,-999.0,49,-99.99,,,0.00,Acu-Link.com,2014-01-01 04:41:00,
2013-12-31 21:56:00,32.9,16.3,29.99,West,270,0.0,-999.0,50,-99.99,,,0.00,Acu-Link.com,2014-01-01 04:56:00,
2013-12-31 22:11:00,32.4,16.3,29.98,West,270,1.6,-999.0,51,-99.99,,,0.00,Acu-Link.com,2014-01-01 05:11:00,
2013-12-31 22:26:00,32.0,16.4,29.99,East,90,0.0,-999.0,52,-99.99,,,0.00,Acu-Link.com,2014-01-01 05:26:00,
2013-12-31 22:41:00,31.5,16.3,29.97,NNW,337,0.0,-999.0,53,-99.99,,,0.00,Acu-Link.com,2014-01-01 05:41:00,
2013-12-31 22:57:00,30.7,16.1,29.98,NNW,337,0.0,-999.0,54,-99.99,,,0.00,Acu-Link.com,2014-01-01 05:57:00,
2013-12-31 23:12:00,30.0,16.2,29.97,WNW,292,2.2,-999.0,56,-99.99,,,0.00,Acu-Link.com,2014-01-01 06:12:00,
2013-12-31 23:27:00,29.8,16.5,29.97,ESE,112,0.0,-999.0,57,-99.99,,,0.00,Acu-Link.com,2014-01-01 06:27:00,
2013-12-31 23:42:00,29.5,16.5,29.97,NNE,22,0.0,-999.0,58,-99.99,,,0.00,Acu-Link.com,2014-01-01 06:42:00,
2013-12-31 23:57:00,28.9,16.0,29.97,West,270,0.0,-999.0,58,-99.99,,,0.00,Acu-Link.com,2014-01-01 06:57:00,